Regional Weather Roundup
Issued by NWS

Home | Current Version | Previous Version | Text Only | Print | Product List | Glossary On
Versions: 1 2 3 4 5 6 7 8 9 10 11 12 13 14 15 16 17 18 19 20 21 22 23 24 25 26 27 28 29 30 31 32 33 34 35 36 37 38 39 40 41 42 43 44 45 46 47 48 49 50
000
ASCA42 TJSJ 300811
RWRPR
PUERTO RICO/U.S. VIRGIN ISLANDS HOURLY WEATHER ROUNDUP
NATIONAL WEATHER SERVICE SAN JUAN PR
400 AM AST FRI JAN 30 2015

PRZ001-004-300900-
PUERTO RICO

CITY           SKY/WX    TMP DP  RH WIND       PRES   REMARKS
SAN JUAN LMM   LGT RAIN  72  72 100 W6        29.98S
PONCE          PTCLDY    66  63  88 CALM      29.95S
CEIBA          PTCLDY    72  70  94 NW5       29.99S
$$

PRZ006-007-300900-
U.S. VIRGIN ISLANDS

CITY           SKY/WX    TMP DP  RH WIND       PRES   REMARKS
$$

HOURLY WEATHER ROUNDUP FOR THE NEWS MEDIA

CITY           SKY/WX    TMP DP  RH WIND       PRES   REMARKS
MIAMI          PTCLDY    61  52  72 NW6       30.18F
ORLANDO        CLEAR     53  48  83 SW5       30.18F
NEW YORK       FLURRIES  34  31  88 SE3       29.92F
NEWARK         FLURRIES  32  30  92 W8        29.90F WCI  25
CHICAGO        CLOUDY    26  12  55 N12       30.37R WCI  16
HARTFORD       FLURRIES  32  28  85 SE5       29.94F WCI  27
BOSTON         CLOUDY    30  26  85 SE8       29.96F WCI  22
DALLAS         CLOUDY    49  30  48 N12       30.48S
PHILADELPHIA   CLOUDY    35  25  66 S5        29.90F WCI  31


USA.gov is the U.S. government's official web portal to all federal, state and local government web resources and services.